Location: Lourdes
(43.1000°N, 0.0500°W)
Time: 00:13:11
(UTC+00:00)

Cosmos 773 Rocket - Pass Details

Date: 13 April 2021
Orbit: 745 x 777 km, 74.1° (Epoch: 10 May)

Event Time Altitude Azimuth Distance (km) Brightness Sun altitude
Rises 03:12:50 0° 329° (NNW) 3,254 7.3 -22.0°
Reaches altitude 10° 03:15:28 10° 319° (NW) 2,326 6.5 -21.6°
Enters shadow 03:18:17 25° 292° (WNW) 1,547 5.3 -21.2°
